Wind_Speed
5 6 7 7 8 9 9 10 12 14 14 14 15 16 17 17 18 19 20 21 23 23 24 25 26 27 26 25 25 25 25 26 27 27 27 27 27 27 27 27 27 28 27 25
7 8 8 9 9 9 10 11 13 14 14 15 16 17 18 18 19 21 22 23 24 25 26 26 27 27 27 26 25 25 26 27 27 27 27 26 26 26 27 27 27 26 24 24
7 8 9 9 10 10 10 11 12 14 14 15 16 17 18 19 20 21 22 23 24 24 25 27 26 26 26 25 25 25 26 26 27 27 26 26 26 26 26 26 25 24 23 22
8 9 9 9 10 10 11 12 13 13 13 15 16 17 20 19 21 22 23 23 23 24 25 26 26 25 24 24 25 25 26 26 26 26 26 26 25 25 25 25 24 23 23 23
10 10 10 10 11 11 11 12 12 13 13 14 16 17 19 19 21 22 22 22 23 23 24 24 24 23 23 24 25 25 26 26 26 25 25 25 25 25 25 24 23 23 23 23
10 10 11 11 11 11 12 12 13 12 12 14 15 15 18 19 20 20 21 21 22 24 24 23 23 23 23 24 25 25 25 25 25 25 24 25 25 25 24 24 24 24 24 23
11 12 12 12 12 12 12 11 12 12 12 13 16 16 17 19 20 20 20 21 21 22 22 21 22 22 23 24 24 24 24 23 23 23 24 24 24 24 24 24 24 23 23 23
12 12 13 12 12 12 12 11 12 12 12 14 16 16 18 20 20 20 21 21 22 22 21 21 22 23 24 24 23 22 22 22 22 23 23 23 23 23 23 23 22 22 21 22
11 12 13 13 13 13 13 12 11 12 13 14 15 17 17 18 19 19 20 21 21 21 21 21 22 22 22 22 21 20 20 20 21 21 21 21 21 21 21 21 20 20 20 20
12 13 12 13 13 13 12 11 11 12 14 15 16 17 17 18 19 19 20 19 20 20 20 20 20 20 20 20 19 19 18 19 20 19 19 19 19 19 19 19 19 19 18 18
13 13 12 13 12 13 13 11 12 13 14 15 15 17 18 18 19 19 19 20 20 20 19 19 20 19 19 19 19 19 18 19 18 18 17 17 16 16 17 17 17 16 16 17
14 13 13 13 12 12 12 12 12 14 15 15 15 18 19 19 19 19 19 19 18 18 19 19 18 18 18 18 19 19 18 18 17 16 16 16 16 16 15 16 16 16 16 16
14 13 13 13 13 13 13 13 13 14 14 15 15 18 19 19 19 19 19 19 19 19 19 19 18 18 18 18 18 18 18 17 15 15 15 14 14 14 14 15 15 15 15 16
14 13 12 12 12 13 13 14 14 15 15 15 16 18 18 19 18 19 18 18 18 19 19 18 17 17 18 18 18 17 17 16 15 14 14 13 13 13 13 14 15 15 16 16
14 13 13 13 13 13 14 15 15 16 15 16 16 17 18 19 19 19 19 19 18 18 18 18 17 17 18 18 17 17 17 15 14 13 13 12 12 12 13 14 14 15 16 16
15 14 14 14 14 14 15 15 15 16 16 16 17 18 19 20 19 19 19 19 18 17 17 18 17 17 17 17 16 16 15 14 13 13 12 12 12 13 13 14 14 15 15 16
15 15 14 15 15 16 16 16 15 15 16 17 18 19 20 19 19 19 19 19 18 18 18 18 17 16 17 16 16 15 14 12 12 12 12 12 13 13 13 13 14 15 15 16
16 15 15 15 15 15 16 15 15 16 17 18 19 19 19 19 19 19 19 19 18 18 18 17 17 17 17 16 15 14 13 12 11 12 12 12 12 13 14 15 15 15 16 17
16 16 16 16 16 17 16 16 16 17 18 18 19 19 20 19 20 19 19 19 18 17 17 17 17 17 16 15 14 13 13 12 12 12 13 12 12 13 14 15 15 15 16 17
16 16 16 16 17 18 17 17 17 17 18 19 19 19 19 19 19 18 18 18 17 16 16 16 17 17 16 14 13 13 13 13 12 12 12 12 12 13 14 15 15 16 16 17
18 18 17 17 17 18 18 18 17 17 18 19 19 19 18 18 18 18 18 18 17 16 16 16 16 15 14 13 13 13 13 13 12 11 11 11 12 13 14 15 16 16 17 17
19 19 18 18 19 19 19 18 18 18 18 19 19 18 18 18 18 18 18 17 16 15 15 15 15 14 13 12 13 13 12 12 12 11 11 12 13 14 14 15 16 17 18 18
20 19 19 20 20 21 20 20 20 20 20 20 19 18 18 18 18 18 17 16 15 14 15 14 13 12 12 12 13 12 12 12 12 12 12 13 14 15 15 16 17 18 18 18
21 20 21 21 21 21 21 21 21 21 20 20 19 19 18 18 18 17 16 15 14 14 13 13 12 11 11 12 12 11 12 12 12 12 12 13 14 14 15 16 17 17 18 18
22 23 22 22 22 22 22 22 21 21 20 20 19 19 18 18 18 16 15 14 14 14 13 12 11 11 12 13 12 11 12 12 12 12 12 13 13 14 15 16 16 17 18 18
24 24 23 23 24 24 23 22 22 21 20 20 19 19 18 18 17 16 15 14 14 13 13 12 12 12 13 13 12 12 12 12 12 12 12 13 14 14 14 15 16 17 17 18
Wind_Direction
320 317 308 300 289 279 276 282 287 289 292 290 289 287 286 288 288 288 288 288 289 290 291 292 291 290 292 293 294 293 293 294 295 294 293 294 294 294 295 295 295 295 292 290
321 312 307 304 303 300 293 289 288 290 293 293 292 290 288 289 289 288 288 288 288 289 290 292 291 291 292 293 293 292 294 294 294 295 294 294 292 293 294 294 294 295 293 292
315 307 309 309 308 306 300 291 288 290 296 296 297 297 295 292 292 290 289 289 288 290 290 291 291 291 292 293 292 292 293 294 294 293 293 293 293 293 294 294 294 292 291 291
317 314 313 313 311 307 298 292 291 293 301 302 301 299 296 295 293 292 292 294 293 294 293 292 291 291 291 292 293 292 293 295 295 293 294 296 295 295 295 295 294 292 291 291
319 318 316 314 312 311 306 301 297 298 301 302 302 299 297 296 296 296 296 298 297 297 295 294 293 292 291 292 294 293 295 295 295 294 295 296 296 295 294 293 293 293 292 293
319 317 315 314 315 314 312 311 311 311 310 305 305 302 300 299 299 300 298 302 300 299 298 296 297 297 295 296 297 297 296 295 295 297 297 297 296 295 293 293 292 293 293 294
318 314 314 316 317 318 320 323 320 318 313 305 308 306 304 305 303 303 302 303 303 302 303 301 301 301 301 302 301 299 298 297 297 299 299 298 297 296 295 295 294 293 294 293
316 314 316 319 319 318 319 321 317 313 312 308 311 311 308 309 309 307 306 307 308 308 309 307 306 305 304 304 303 300 300 301 300 300 300 299 297 297 295 296 297 297 295 294
315 312 316 318 320 320 319 319 319 322 322 321 319 317 315 316 315 314 314 313 313 312 311 311 309 309 308 308 306 303 304 303 303 303 302 300 298 297 297 297 299 299 298 297
320 317 317 318 320 320 317 319 324 327 324 323 322 320 323 323 321 320 322 320 318 317 316 315 314 314 313 314 314 310 308 308 307 306 305 303 299 298 299 299 300 301 301 300
322 322 321 321 321 321 324 323 323 322 322 321 321 318 322 324 326 327 326 324 323 322 321 317 316 317 318 317 316 314 313 313 311 307 307 306 303 302 300 301 302 304 306 304
321 319 320 319 319 322 325 322 320 322 325 323 323 320 322 325 328 329 327 326 325 325 323 321 319 319 320 321 321 320 317 315 313 312 311 309 306 305 304 306 307 307 308 309
321 318 320 321 320 322 322 322 320 323 324 323 323 320 322 325 328 328 328 327 327 327 326 325 323 323 323 325 326 325 322 320 317 316 314 314 313 311 311 314 315 314 314 317
317 315 314 315 314 316 318 320 322 324 323 321 320 320 321 325 328 328 328 328 329 330 330 330 327 328 328 329 329 329 327 325 324 321 320 320 319 318 317 320 322 324 321 322
315 313 310 312 314 314 315 315 318 321 320 319 321 321 324 328 328 328 327 328 327 327 330 330 327 328 329 330 330 328 328 325 325 326 327 326 327 324 322 324 326 330 329 327
317 313 311 310 311 311 312 313 314 316 316 318 320 321 323 327 328 327 325 327 327 328 329 329 328 329 330 331 333 332 330 326 326 329 331 329 331 330 328 330 332 333 332 331
316 313 311 310 310 310 310 311 311 313 315 317 317 319 321 323 325 326 326 326 327 327 329 330 332 332 333 333 333 334 335 335 332 332 333 333 334 335 336 338 337 335 333 332
315 314 311 308 308 308 310 311 311 313 316 318 317 318 320 322 324 326 327 326 327 328 329 330 332 333 332 332 333 336 337 339 336 336 338 338 339 339 339 339 337 336 336 333
313 313 310 306 305 305 308 310 310 312 314 316 319 319 320 319 322 323 325 326 323 327 327 328 331 334 335 335 335 335 337 338 337 338 340 340 340 340 341 341 341 341 338 334
310 311 310 306 302 302 306 308 310 311 312 316 318 318 320 320 321 322 324 325 324 323 326 329 332 334 336 337 339 337 337 339 339 339 341 342 342 342 342 342 343 342 339 337
306 307 307 305 302 300 303 304 307 310 312 315 317 318 320 320 320 322 323 322 322 324 327 330 332 334 335 336 337 339 341 342 342 343 345 345 342 343 343 343 344 342 341 340
302 303 302 302 302 301 302 302 303 307 310 313 314 316 318 319 319 320 321 322 321 323 327 329 332 335 337 338 340 340 341 342 341 342 342 341 340 340 340 342 342 343 341 340
297 297 297 298 298 300 301 301 301 302 305 309 311 312 316 317 318 320 322 322 322 324 326 328 330 335 339 340 342 343 343 342 339 338 338 338 338 341 344 343 343 343 344 344
293 294 293 294 296 298 300 300 299 299 300 304 307 309 312 314 315 318 319 319 319 324 325 328 329 333 336 337 338 340 341 342 342 340 339 339 341 345 346 345 346 347 347 347
290 290 291 292 293 295 299 300 297 295 295 299 303 304 306 310 310 312 315 315 317 322 325 326 328 332 335 336 335 336 338 340 340 340 341 343 345 346 346 348 349 349 349 349
288 288 289 290 292 293 296 297 295 292 291 294 297 298 301 304 305 306 308 308 310 313 317 319 320 324 329 332 333 335 337 338 339 338 341 345 346 346 348 350 349 350 350 351
Height
5864 5864 5863 5862 5862 5862 5861 5861 5860 5858 5856 5856 5854 5853 5852 5851 5849 5848 5846 5845 5843 5841 5839 5836 5834 5832 5829 5827 5824 5822 5819 5817 5814 5811 5808 5805 5803 5800 5798 5796 5793 5791 5788 5786
5864 5863 5861 5860 5859 5858 5858 5858 5857 5855 5853 5852 5851 5849 5848 5846 5845 5843 5841 5840 5838 5835 5833 5831 5828 5826 5824 5821 5819 5816 5814 5811 5808 5805 5802 5799 5797 5794 5792 5790 5787 5784 5782 5780
5862 5861 5859 5858 5857 5856 5855 5854 5853 5852 5850 5848 5847 5846 5844 5842 5840 5838 5836 5834 5831 5829 5827 5824 5822 5820 5818 5815 5812 5810 5807 5805 5802 5798 5796 5793 5790 5788 5786 5784 5781 5779 5777 5775
5860 5859 5857 5856 5854 5853 5853 5851 5850 5848 5847 5846 5845 5843 5840 5838 5835 5833 5830 5828 5825 5822 5820 5818 5816 5814 5811 5809 5806 5804 5801 5799 5796 5793 5790 5787 5785 5782 5780 5778 5775 5773 5771 5769
5859 5857 5855 5854 5852 5850 5849 5848 5846 5845 5844 5843 5841 5839 5837 5833 5831 5828 5825 5822 5819 5817 5814 5812 5810 5807 5805 5803 5800 5798 5795 5792 5789 5787 5784 5781 5779 5776 5774 5772 5770 5768 5766 5763
5857 5855 5853 5852 5850 5848 5846 5845 5843 5842 5841 5840 5837 5835 5833 5829 5826 5823 5820 5817 5814 5811 5808 5806 5804 5801 5799 5797 5794 5791 5788 5786 5783 5780 5778 5775 5773 5770 5768 5766 5764 5762 5759 5757
5855 5853 5851 5849 5848 5846 5844 5843 5842 5841 5839 5837 5833 5831 5828 5823 5820 5817 5815 5812 5808 5805 5802 5800 5798 5796 5793 5790 5787 5784 5781 5779 5776 5774 5772 5769 5766 5764 5762 5759 5757 5755 5753 5751
5854 5852 5849 5847 5845 5843 5841 5840 5840 5838 5836 5834 5829 5826 5824 5819 5815 5812 5810 5806 5803 5800 5797 5795 5792 5789 5786 5783 5780 5778 5775 5773 5771 5768 5766 5763 5761 5758 5756 5753 5751 5749 5747 5745
5852 5850 5847 5844 5842 5841 5839 5837 5836 5834 5831 5829 5826 5823 5819 5815 5811 5808 5805 5801 5798 5795 5792 5790 5787 5783 5780 5777 5775 5772 5770 5767 5765 5763 5760 5758 5755 5753 5750 5748 5746 5743 5741 5740
5849 5847 5845 5842 5840 5838 5837 5834 5833 5831 5829 5827 5824 5820 5816 5812 5808 5805 5801 5797 5794 5791 5788 5785 5782 5779 5775 5772 5770 5767 5765 5762 5760 5758 5755 5753 5750 5748 5746 5744 5741 5739 5737 5735
5846 5845 5843 5840 5838 5836 5834 5832 5830 5828 5826 5823 5821 5819 5813 5809 5805 5802 5798 5794 5791 5788 5784 5781 5778 5775 5772 5769 5765 5763 5760 5758 5755 5753 5750 5747 5745 5743 5741 5739 5737 5735 5733 5730
5843 5842 5840 5838 5835 5833 5831 5829 5827 5826 5823 5820 5817 5817 5809 5806 5802 5799 5795 5791 5788 5785 5781 5778 5775 5772 5768 5765 5762 5759 5756 5753 5751 5748 5745 5743 5741 5739 5737 5735 5733 5731 5729 5726
5840 5839 5837 5835 5834 5831 5829 5827 5824 5823 5820 5818 5815 5814 5806 5803 5800 5796 5792 5789 5785 5782 5778 5775 5772 5769 5765 5762 5759 5756 5752 5749 5747 5744 5742 5739 5737 5735 5733 5731 5729 5727 5725 5722
5838 5836 5836 5834 5831 5828 5826 5824 5821 5820 5817 5815 5812 5808 5804 5800 5797 5793 5789 5786 5782 5779 5776 5772 5769 5766 5763 5759 5756 5753 5749 5746 5744 5741 5739 5736 5734 5732 5730 5728 5726 5724 5721 5718
5835 5833 5831 5829 5827 5825 5823 5821 5819 5816 5814 5812 5808 5805 5801 5797 5794 5790 5787 5783 5780 5777 5773 5770 5767 5764 5760 5757 5753 5750 5747 5744 5741 5739 5736 5734 5732 5730 5728 5726 5724 5721 5718 5715
5831 5830 5828 5826 5824 5822 5820 5817 5815 5813 5810 5808 5805 5802 5798 5795 5791 5788 5784 5781 5777 5774 5771 5768 5765 5761 5758 5754 5751 5748 5745 5742 5740 5737 5735 5732 5730 5728 5726 5724 5721 5719 5716 5713
5828 5826 5824 5823 5820 5818 5816 5814 5812 5809 5807 5805 5802 5799 5795 5792 5788 5785 5781 5778 5775 5772 5769 5765 5762 5759 5755 5752 5749 5746 5743 5741 5738 5736 5734 5731 5729 5726 5724 5721 5719 5716 5713 5710
5825 5822 5820 5819 5817 5815 5815 5811 5808 5806 5804 5801 5798 5795 5791 5788 5785 5782 5778 5775 5772 5769 5766 5763 5760 5756 5753 5750 5747 5745 5742 5740 5737 5735 5733 5730 5728 5725 5723 5720 5717 5714 5711 5708
5821 5819 5817 5815 5813 5811 5810 5807 5805 5803 5800 5797 5795 5791 5788 5784 5782 5779 5775 5772 5769 5766 5764 5761 5758 5754 5751 5748 5746 5743 5741 5738 5736 5734 5731 5729 5726 5724 5721 5718 5715 5712 5709 5705
5817 5815 5813 5811 5809 5808 5807 5804 5801 5800 5796 5794 5791 5788 5784 5781 5779 5776 5773 5769 5767 5764 5761 5758 5756 5752 5749 5747 5744 5742 5739 5737 5735 5732 5730 5727 5725 5722 5720 5717 5713 5710 5706 5703
5813 5811 5809 5807 5805 5803 5801 5799 5798 5797 5794 5790 5787 5784 5781 5778 5775 5773 5770 5767 5764 5762 5759 5756 5754 5751 5748 5746 5743 5741 5738 5736 5733 5731 5729 5726 5724 5721 5718 5715 5712 5708 5704 5701
5808 5806 5804 5802 5801 5800 5796 5794 5793 5792 5788 5786 5783 5780 5778 5775 5772 5770 5767 5764 5761 5759 5757 5754 5752 5749 5747 5744 5742 5739 5737 5735 5732 5730 5728 5725 5722 5719 5716 5713 5710 5706 5702 5698
5803 5801 5799 5798 5797 5793 5791 5789 5788 5786 5784 5782 5779 5777 5774 5772 5769 5767 5764 5761 5759 5757 5755 5753 5750 5748 5746 5743 5741 5738 5736 5733 5731 5729 5726 5724 5721 5718 5714 5711 5707 5703 5699 5695
5797 5795 5793 5792 5790 5788 5786 5784 5782 5780 5779 5777 5775 5773 5771 5768 5766 5763 5761 5759 5757 5755 5753 5751 5748 5746 5744 5742 5739 5737 5735 5732 5730 5727 5724 5722 5719 5716 5712 5709 5705 5701 5697 5693
5791 5789 5787 5786 5784 5782 5781 5778 5777 5775 5773 5772 5770 5768 5767 5765 5762 5760 5758 5756 5755 5753 5751 5749 5747 5745 5743 5740 5738 5735 5733 5730 5728 5725 5723 5720 5717 5714 5710 5707 5703 5699 5695 5691
5783 5782 5781 5779 5778 5776 5774 5772 5770 5769 5768 5766 5765 5764 5762 5760 5758 5756 5755 5753 5752 5750 5748 5746 5745 5743 5741 5738 5736 5733 5731 5728 5726 5723 5721 5718 5715 5711 5708 5705 5701 5697 5693 5689